User: anonymous   Login
Location: Unspecified
(0.0000°N, 0.0000°E)
Time: 21:20:15
(UTC+00:00)
Language:

Kosmos-2154 - Orbit

View from above orbital plane
View from above orbital plane
View from above satellite
View from above satellite

Ground track
Ground track

The orbit data is extracted from the following two-line orbital elements,

1 21666U 91059A   17141.88744727 +.00000026 +00000-0 +12037-4 0  9991
2 21666 082.9090 049.4741 0026351 063.6239 342.1827 13.73300586290055
Epoch (UTC): 21 May 2017 21:17:55
Eccentricity: 0.0026351
inclination: 82.9090°
perigee height: 968 km
apogee height: 1007 km
right ascension of ascending node: 49.4741°
argument of perigee: 63.6239°
revolutions per day: 13.73300586
mean anomaly at epoch: 342.1827°
orbit number at epoch: 29005

The dashed part of the orbit path shows where the satellite is in the earth's shadow,  

DLR